Location: Caltech
(34.1382°N, 118.1253°W)
Time: 19:00:06
(UTC-07:00)

Cosmos 1833 Rocket - Visible Passes

Search period start: 28 May 2016 00:00
Search period end: 07 June 2016 00:00
Orbit: 832 x 840 km, 71.0° (Epoch: 28 May)

Date Brightness Start Highest point End Pass type
(mag) Time Alt. Az. Time Alt. Az. Time Alt. Az.
28 May 3.9 01:05:17 37° NE 01:05:17 37° NE 01:08:43 10° NNE visible
28 May 4.6 02:46:58 17° WNW 02:47:30 17° WNW 02:51:04 10° NNW visible
29 May 4.0 00:48:48 33° NE 00:48:48 33° NE 00:52:01 10° NNE visible
29 May 4.6 02:30:29 18° WNW 02:30:46 18° WNW 02:34:37 10° NNW visible
30 May 4.1 00:32:16 31° NE 00:32:16 31° NE 00:35:18 10° NNE visible
30 May 4.5 02:13:57 20° WNW 02:14:03 20° WNW 02:18:07 10° NNW visible
31 May 4.2 00:15:43 28° NE 00:15:43 28° NE 00:18:34 10° NE visible
31 May 4.4 01:57:23 22° WNW 01:57:23 22° WNW 02:01:37 10° N visible
31 May 4.2 23:59:06 26° NE 23:59:06 26° NE 00:01:51 10° NE visible
01 Jun 4.4 01:40:46 24° WNW 01:40:46 24° WNW 01:45:06 10° N visible
01 Jun 4.2 23:42:27 25° ENE 23:42:27 25° ENE 23:45:06 10° NE visible
02 Jun 4.3 01:24:07 26° WNW 01:24:07 26° WNW 01:28:34 10° N visible
02 Jun 4.3 23:25:46 24° ENE 23:25:46 24° ENE 23:28:20 10° NE visible
03 Jun 4.2 01:07:25 28° WNW 01:07:25 28° WNW 01:12:00 10° N visible
03 Jun 4.3 23:09:01 23° ENE 23:09:01 23° ENE 23:11:34 10° NE visible
04 Jun 4.1 00:50:40 30° WNW 00:50:40 30° WNW 00:55:26 10° N visible
04 Jun 4.2 22:52:13 22° ENE 22:52:13 22° ENE 22:54:48 10° NE visible
05 Jun 4.0 00:33:52 33° WNW 00:33:52 33° WNW 00:38:52 10° N visible
05 Jun 4.2 22:35:20 21° ENE 22:35:20 21° ENE 22:38:00 10° NE visible
06 Jun 3.8 00:16:58 36° WNW 00:17:07 36° WNW 00:22:17 10° N visible
06 Jun 4.2 22:18:22 21° ENE 22:18:22 21° ENE 22:21:10 10° NE visible
